Current Version              Previous Version:    01  02  03  04  05  06  07  08  09  10  11  12  13  14  15  16  17  18  19  20  21  22  23  24  25  26  27  28  29  30  
   31  32  33  34  35  36  37  38  39  40  41  42  43  44  45  46  47  48  49  50  51  52  53  54  55  56  57  58  59  60  

[Printable]
142
ASUS44 KLUB 192301
RWRTX
WEST TEXAS WEATHER ROUNDUP
NATIONAL WEATHER SERVICE LUBBOCK TX
600 PM CDT TUE AUG 19 2014

NOTE: "FAIR" INDICATES FEW OR NO CLOUDS BELOW 12,000 FEET WITH NO
SIGNIFICANT WEATHER AND/OR OBSTRUCTIONS TO VISIBILITY.

TXZ004-006>008-010-012-014-016-OKZ002-200000-
TEXAS PANHANDLE/OKLAHOMA PANHANDLE

CITY           SKY/WX    TMP DP  RH WIND       PRES   REMARKS
AMARILLO       SUNNY     88  59  37 S13       29.89F
BORGER         SUNNY     91  57  31 SE10      29.85F
CANADIAN       MOSUNNY   92  63  38 S8G20     29.81F
DALHART        MOSUNNY   96  48  19 SE14      29.87F
DUMAS          SUNNY     92  53  26 SE8G20    29.87S
GUYMON         SUNNY     95  54  25 S15       29.81F
HEREFORD       SUNNY     89  62  39 SE10      29.90S
PAMPA          SUNNY     89  56  32 S14G20    29.88S
PERRYTON       SUNNY     92  57  30 S20G26    29.84F
$$

TXZ026-029-035-045-048-200000-
SOUTHERN PANHANDLE/SOUTH PLAINS/ROLLING PLAINS

CITY           SKY/WX    TMP DP  RH WIND       PRES   REMARKS
CHILDRESS      MOSUNNY   93  63  36 SE17      29.82F
SEMINOLE       MOSUNNY   93  57  30 S12G18    29.87S
LUBBOCK        MOSUNNY   93  59  31 S9        29.86F
PLAINVIEW      SUNNY     90  61  38 S7        29.87F
SNYDER         MOSUNNY   90  65  43 S10G20    29.85F
$$

TXZ052-054-060>062-072-078-127-140-154-169-200000-
PERMIAN BASIN/CONCHO VALLEY/BIG COUNTRY/EDWARDS PLATEAU

CITY           SKY/WX    TMP DP  RH WIND       PRES   REMARKS
ABILENE        MOSUNNY   88  65  46 S15       29.86S
BIG SPRING     SUNNY     93  64  37 SE13G21   29.87S HX  95
BRADY          SUNNY     86  63  45 SE14      29.88S
BROWNWOOD      SUNNY     91  59  33 SE15G24   29.85S
JUNCTION       SUNNY     85  68  56 E7        29.87F
MIDLAND        MOSUNNY   92  60  34 S14       29.84F
ODESSA         MOSUNNY   91  58  32 S17       29.85F
SAN ANGELO     MOSUNNY   90  66  45 S13G21    29.84F
SONORA         SUNNY     86  63  45 SE12      29.92S
SWEETWATER     MOSUNNY   89  64  43 SE16      29.88F
WINK           MOSUNNY   97  58  27 SE18G24   29.80F HX  96
$$

TXZ055-058-074-075-080-082-200000-
FAR WEST/SOUTHWEST MOUNTAINS/TRANS PECOS

CITY           SKY/WX    TMP DP  RH WIND       PRES   REMARKS
ALPINE         CLOUDY    76  64  67 SE6       30.02F
DRYDEN           N/A     97  63  32 E14       29.81F HX  98
EL PASO        PTSUNNY   87  56  34 SW15G25   29.89S
FORT STOCKTON  TSTM      74  67  78 W17G24    29.90R
GUADALUPE PASS SUNNY     88  49  25 SW17      30.00F
MARFA          PTSUNNY   81  59  47 S3        30.02F
PRESIDIO       FAIR      80  67  64 N3        29.84F
$$

TXZ014-016-019-021>030-083-200000
TEXAS TECH WEST TEXAS MESONET/TEXAS PANHANDLE/NORTHERN SOUTH PLAINS

CITY           SKY/WX    TMP DP  RH WIND       PRES   REMARKS
ABERNATHY 5ENE   N/A     88  60  39 SE10      29.89S
AMARILLO 9NNE    N/A     91  61  36 SE14      29.86F
AMARILLO 7SSE    N/A     89  60  37 SE10      29.89F
AMHERST 1NE      N/A     89  58  35 S8        29.88F
BOOTLEG 11WNW    N/A     89  57  33 SE18      29.93F
CANADIAN 6E      N/A     93  64  38 SE18      29.81F
CAPROCK CYN SP   N/A     90  59  35 S8        29.85S
CHILDRESS 2NNE   N/A     93  60  32 SE14      29.81S
CLARENDON 2WSW   N/A     92  58  31 SE14      29.85S
CLAUDE 12SW      N/A     88  60  37 S6        29.88F
DIMMITT 2NE      N/A     88  60  38 S13       29.91S
FLOYDADA 2NNE    N/A     89  55  31 S7        29.88F
FRIONA 2NE       N/A     87  55  32 SE12      29.91F
GOODLETT 3W      N/A     95  58  28 S14       29.79F
HART 3N          N/A     86  63  45 SE8       29.90F
HEREFORD 2NW     N/A     87  57  35 SE10      29.90S
MCLEAN 1E        N/A     88  61  40 S10       29.85F
MEMPHIS 1NE      N/A     93  61  34 SE12      29.81F
MULESHOE 2SSW    N/A     90  55  30 SE12      29.89S
OLTON 6S         N/A     89  58  34 S8        29.88F
PALO DURO SP     N/A     91  60  35 SE9       29.89F
PAMPA 2E         N/A     89  58  34 SE16      29.87F
PLAINVIEW 1S     N/A     89  60  38 SE9       29.87F
SILVERTON 7ESE   N/A     87  59  38 S9        29.87F
TULIA 2ENE       N/A     88  62  41 SE10      29.88F
TURKEY 2WSW      N/A     91  61  35 S10       29.83S
UMBARGER 3NNE    N/A     89  58  34 S14       29.90S
$$

TXZ033>036-039>041-045>048-200000
TEXAS TECH WEST TEXAS MESONET/SOUTH PLAINS

CITY           SKY/WX    TMP DP  RH WIND       PRES   REMARKS
AIKEN 3WSW       N/A     87  63  44 S6        29.89F
ANDREWS 2NE      N/A     93  54  26 SE8       29.86S
ANTON 6SSW       N/A     91  57  32 SE7       29.87F
BROWNFIELD 2S    N/A     90  56  31 SE9       29.86F
DENVR CTY 7WNW   N/A     92  51  25 SE13      29.86F
GAIL 2ESE        N/A     89  64  44 SE10      29.84S
LAMESA 2SE       N/A     91  61  36 S10       29.86S
LEVELLAND 4S     N/A     91  55  29 SE7       29.87F
LUBBOCK 3WNW     N/A     91  58  31 S8        29.87F
MORTON 1ENE      N/A     91  56  30 SE7       29.88F
ODONNELL 1N      N/A     91  57  32 SE12      29.85F
PLAINS 3N        N/A     92  56  29 SE14      29.87F
RALLS 1SE        N/A     89  60  37 S6        29.88F
REESE CENTER     N/A     89  56  32 SE10      29.87F
SEAGRAVES 1SW    N/A     93  56  29 SE10      29.86S
SEMINOLE 2NNE    N/A     92  54  27 S9        29.86S
SLATON 2NE       N/A     89  58  34 SE9       29.87F
SNYDER 3E        N/A     92  62  37 S13       29.84F
SUNDOWN 8SW      N/A     92  55  28 S8        29.87F
TAHOKA 3NNE      N/A     88  61  39 SE10      29.86S
WOLFFORTH 6SSW   N/A     91  59  33 E7        29.87F
$$

TXZ031-032-036>038-042>044-200000-
TEXAS TECH WEST TEXAS MESONET/ROLLING PLAINS

CITY           SKY/WX    TMP DP  RH WIND       PRES   REMARKS
ASPERMONT 3NE    N/A     90  65  43 S12       29.82F
FLUVANNA 3WNW    N/A     89  61  39 S13       29.85F
GRAHAM 5SSW      N/A     89  61  38 SE15      29.85S
GUTHRIE 10WSW    N/A     89  64  41 SE16      29.81F
HASKELL 1NW      N/A     89  61  38 S9        29.82F
JAYTON 1SSE      N/A     92  64  39 S14       29.82S
KNOX CITY 3NW    N/A     92  60  33 S16       29.81F
LK A HENRY 1NW   N/A     93  62  35 S13       29.82F
NORTHFIELD 1S    N/A     93  63  37 SE14      29.81S
ODELL 4ENE       N/A     95  60  31 SE9       29.80S
PADUCAH 10SW     N/A     91  63  39 SE9       29.81F
POST 1NE         N/A     90  59  34 S9        29.83F
RRING SPRGS 3N   N/A     90  62  39 SE10      29.84F
SEYMOUR 3NW      N/A     91  61  36 S10       29.81S
SPUR 1W          N/A     92  60  33 SE12      29.81F
WEINERT 2NNE     N/A     91  67  44 S15       29.82F
WHITE RVR 6NE    N/A     93  60  33 SE6       29.84F
$$

TXZ052-054-060>062-072-078-127-140-154-169-200000-
TEXAS TECH WEST TEXAS MESONET/PERMIAN BASIN/
CONCHO VALLEY/BIG COUNTRY/EDWARDS PLATEAU

CITY           SKY/WX    TMP DP  RH WIND       PRES   REMARKS
COYANOSA 2N      N/A     96  62  32 S12       29.81S HX  96
JUNCTION 1SSW    N/A     87  69  54 S9        29.88F
MERTZON 3NNE     N/A     89  67  47 S9        29.86F
SAN ANGELO 7NW   N/A     88  68  51 E8        29.84F
STRLNG CT 4WSW   N/A     89  67  47 S14       29.86F
ST LAWRNCE 5SW   N/A     89  61  39 SE13      29.86F
SWEETWATR 11SW   N/A     88  67  49 SE13      29.88S
WALL 1E          N/A     87  68  53 SE10      29.86F
$$

TXZ055-058-074-075-080-082-200000-
TEXAS TECH WEST TEXAS MESONET/FAR WEST/SOUTHWEST MOUNTAINS/TRANS PECOS

CITY           SKY/WX    TMP DP  RH WIND       PRES   REMARKS
GUADLPE MTN NP   N/A     85  46  25 CALM      30.01F
$$